Tracking 19170 objects as of 23-May-2018
HD Live streaming from Space Station
objects crossing your sky now

COSMOS 1057

Track COSMOS 1057 now!
10-day predictions
COSMOS 1057 is classified as:


NORAD ID: 11134
Int'l Code: 1978-109G
Perigee: 1,487.8 km
Apogee: 1,522.0 km
Inclination: 74.0 °
Period: 115.9 minutes
Semi major axis: 7875 km
RCS: 0.7046 m2 (medium)
Launch date: December 5, 1978
Source: Commonwealth of Independent States (former USSR) (CIS)
Launch site: PLESETSK MISSILE AND SPACE COMPLEX (PKMTR)
aabbcc
Your satellite tracking list
Your tracking list is empty




NASA's NSSDC Master Catalog

Two Line Element Set (TLE):
1 11134U 78109G   18142.62801671 -.00000009 +00000-0 +50781-4 0  9997
2 11134 074.0148 192.1466 0021743 151.8763 327.1048 12.42088514789232
Source of the keplerian elements: AFSPC